Regional Weather Roundup
Issued by NWS

Home | Current Version | Previous Version | Text Only | Print | Product List | Glossary On
Versions: 1 2 3 4 5 6 7 8 9 10 11 12 13 14 15 16 17 18 19 20 21 22 23 24 25 26 27 28 29 30 31 32 33 34 35 36 37 38 39 40 41 42 43 44 45 46 47 48 49 50
000
ASUS43 KLSX 252259
RWRMO

WEATHER SUMMARY FOR MISSOURI
NATIONAL WEATHER SERVICE SPRINGFIELD MO
600 PM CDT MON MAY 25 2015

NOTE: "FAIR" INDICATES FEW OR NO CLOUDS BELOW 12,000 FEET WITH NO
       SIGNIFICANT WEATHER AND/OR OBSTRUCTIONS TO VISIBILITY.
       CURRENT SKY AND/OR WEATHER CONDITIONS ARE NOT AVAILABLE FOR
       CHILLICOTHE AND FARMINGTON.

MOZ001>031-035>038-043-044-053-054-260000-
...NORTHERN AND WESTERN MISSOURI...

CITY           SKY/WX    TMP DP  RH WIND       PRES   REMARKS
KANSAS CTY INT MOSUNNY   78  65  63 S20G26    29.81S
KANSAS C DTWN  MOSUNNY   81  64  56 S18G26    29.80S
LEE`S SUMMIT   PTSUNNY   80  64  58 S12G26    29.82F
ST JOSEPH      PTSUNNY   79  66  64 S16       29.78F
KIRKSVILLE     MOSUNNY   78  67  68 S8        29.86F

$$
MOZ066>068-077>081-088>096-101>105-260000-
...SOUTHWEST MISSOURI...

CITY           SKY/WX    TMP DP  RH WIND       PRES   REMARKS
SPRINGFIELD    PTSUNNY   79  63  57 S17       29.87F
JOPLIN         CLOUDY    78  66  66 S7        29.84F

$$
MOZ032>034-039>042-045>050-055>058-069>072-260000-
...CENTRAL MISSOURI...

CITY           SKY/WX    TMP DP  RH WIND       PRES   REMARKS
COLUMBIA       MOSUNNY   80  65  59 S10       29.87F
JEFFERSON CITY PTSUNNY   84  63  49 SE14      29.86F
ROLLA          MOSUNNY   79  64  60 S12       29.90F
SEDALIA        SUNNY     81  64  56 S10       29.88F
OSAGE BEACH    MOSUNNY   81  63  54 S10G18    29.89S

$$
MOZ051-052-059>065-260000-
...EAST CENTRAL MISSOURI...

CITY           SKY/WX    TMP DP  RH WIND       PRES   REMARKS
ST LOUIS INTL  MOSUNNY   84  67  56 SE15      29.91F
SPIRIT OF STL  MOSUNNY   82  66  58 VRB7G18   29.89F
ST CHARLES     MOSUNNY   83  65  54 SE14      29.89F

$$
MOZ072>076-082>087-097>100-106>115-260000-
...SOUTH CENTRAL AND SOUTHEAST MISSOURI...

CITY           SKY/WX    TMP DP  RH WIND       PRES   REMARKS
CAPE GIRARDEAU PTSUNNY   77  69  76 S13       29.99F
FARMINGTON     PTSUNNY   79  66  65 S12G20    29.99F
POPLAR BLUFF   SUNNY     79  67  66 SE9       29.96F
WEST PLAINS    MOSUNNY   77  68  73 SE8       29.96S

$$


USA.gov is the U.S. government's official web portal to all federal, state and local government web resources and services.